Regional Weather Roundup
Issued by NWS

Home | Current Version | Previous Version | Graphics & Text | Print | Product List | Glossary On
Versions: 1 2 3 4 5 6 7 8 9 10 11 12 13 14 15 16 17 18 19 20 21 22 23 24 25 26 27 28 29 30 31 32 33 34 35 36 37 38 39 40 41 42 43 44 45 46 47 48 49 50
000
ASUS45 KTFX 240110
RWRMT
MONTANA REGIONAL WEATHER ROUNDUP
NATIONAL WEATHER SERVICE GREAT FALLS MT
700 PM MDT SAT SEP 23 2017

NOTE: "FAIR" INDICATES FEW OR NO CLOUDS BELOW 12000 FEET WITH NO
SIGNIFICANT WEATHER AND/OR OBSTRUCTIONS TO VISIBILITY.

MTZ001>007-043-240200-
WEST OF THE DIVIDE

CITY           SKY/WX    TMP DP  RH WIND       PRES   REMARKS
KALISPELL      MOCLDY    51  37  58 S3        30.09F
MISSOULA       CLOUDY    49  38  65 W5        30.11S
BUTTE          CLOUDY    43  26  51 NW10      30.10R
MULLAN PASS    CLOUDY    37  32  82 CALM      30.11R
ANACONDA         N/A     43  27  52 N6        30.11R
DEER LODGE       N/A     45  28  53 NW10      30.13R
EUREKA           N/A     54  37  54 CALM      30.07S
HAMILTON         N/A     48  30  49 CALM      30.12R
LIBBY            N/A     57  37  47 CALM      30.05S
PLAINS           N/A     55  37  50 CALM      30.10R
$$

MTZ008-052>055-240200-
SOUTHWEST MONTANA

CITY           SKY/WX    TMP DP  RH WIND       PRES   REMARKS
BOZEMAN        CLOUDY    46  34  62 S6        30.08S
DILLON         CLOUDY    46  32  58 NW5       30.06S
W YELLOWSTONE  CLOUDY    45  28  53 MISG      30.02S
ENNIS          CLOUDY    43  30  61 N12       30.11S
THREE FORKS      N/A     49  36  61 N5        30.07S
TWIN BRIDGES     N/A     47  27  46 N2        30.05R
$$

MTZ009-010-012-014-046-048-049-054-240200-
EAST SLOPES AND CENTRAL MONTANA

CITY           SKY/WX    TMP DP  RH WIND       PRES   REMARKS
CUT BANK       CLOUDY    47  35  63 E9        30.05R
GREAT FALLS    MOCLDY    50  29  44 CALM      30.08R
MALMSTROM AFB  CLEAR     50  30  47 CALM      30.08R
HELENA         CLOUDY    49  33  54 SW7       30.08S
BOWMANS CRNR     N/A     44  29  54 SW7       30.06S
CHOTEAU          N/A     48  30  49 S5        30.08S
FAIRFIELD        N/A     49  31  50 S3        30.06S
POWER            N/A     47  33  58 S5        30.06S
RAYNESFORD     MOCLDY    48  30  49 W6        30.08R
ULM              N/A     48  35  60 S3        30.08R
$$

MTZ011-013-016-021-045-047-050-051-240200-
NORTH CENTRAL MONTANA

CITY           SKY/WX    TMP DP  RH WIND       PRES   REMARKS
HAVRE          PTCLDY    52  35  52 E6        30.08S
LEWISTOWN      CLOUDY    45  38  76 E9        30.09R
N BAR RANCH    CLOUDY    41  37  87 CALM      30.13R
CHINOOK          N/A     50  41  71 E8        30.09S
DENTON           N/A     48  39  71 E10       30.05R
GEYSER         CLOUDY    47  38  71 E3        30.08R
JUDITH GAP     CLOUDY    45  35  66 NE5       30.08R
WINIFRED       MOCLDY    45  40  82 E13       30.09R
$$

MTZ017>020-022>027-061-062-240200-
NORTHEAST MONTANA

CITY           SKY/WX    TMP DP  RH WIND       PRES   REMARKS
GLASGOW        CLOUDY    49  37  63 SE5       30.12S
JORDAN           N/A     48  38  68 NE5       30.11S
SIDNEY         LGT RAIN  46  43  89 NE3       30.14R
WOLF POINT     CLOUDY    49  41  74 CALM      30.13R
MALTA          CLOUDY    48  41  76 CALM      30.12S
PLENTYWOOD       N/A     50  39  66 CALM      30.12S
POPLAR           N/A     50  39  66 CALM      30.13S
SCOBEY           N/A     48  34  58 CALM      30.10S
$$

MTZ028>42-056>058-240200-
SOUTHCENTRAL AND SOUTHEAST MONTANA

CITY           SKY/WX    TMP DP  RH WIND       PRES   REMARKS
BAKER          RAIN      44  44 100 N3        30.12R FOG
BILLINGS       CLOUDY    45  39  79 NE3       30.10F
LIVINGSTON     CLOUDY    45  34  65 E7        30.07S
MILES CITY     LGT RAIN  44  41  89 N7        30.12S
BIG TIMBER     CLOUDY    43  36  75 S7        30.11S
EKALAKA          N/A     41  38  89 NE3       30.05R
HARLOWTON      MOCLDY    45  37  71 MISG      30.08R
LAUREL           N/A     45  41  87 CALM      30.10F
$$

REGIONAL REPORTS...DAKOTAS

CITY           SKY/WX    TMP DP  RH WIND       PRES   REMARKS
WILLISTON      LGT RAIN  47  43  86 E7        30.13R
MINOT          CLOUDY    51  44  77 NW8       30.10S
DICKINSON      RAIN      45  44  97 N12       30.06F FOG
BEACH          LGT RAIN  43  43 100 NE6       30.14R
CROSBY           N/A     48  39  71 NE6       30.14S
TIOGA          LGT RAIN  45  45 100 E6        30.14R
WATFORD CITY   CLOUDY    46  45  93 CALM      30.13R
BISMARCK       LGT RAIN  53  47  79 NE10      30.05R
GRAND FORKS    CLOUDY    59  50  72 N12       30.05S
FARGO          LGT RAIN  58  52  80 NE8       30.03R
BUFFALO SD       N/A     45  44  97 N13       29.99F
RAPID CITY     LGT RAIN  46  45  93 N10       30.05R FOG
$$

REGIONAL REPORTS...WYOMING/IDAHO/WASHINGTON

CITY           SKY/WX    TMP DP  RH WIND       PRES   REMARKS
GILLETTE       CLOUDY    41  41 100 N14       30.04R
SHERIDAN       CLOUDY    42  40  92 NE5       30.08R
BUFFALO WY     CLOUDY    39  36  89 N10       30.08R
CODY           CLOUDY    40  35  83 N12       30.08R
IDAHO FALLS    PTCLDY    50  34  54 N10       29.98F
SALMON         CLOUDY    49  31  49 N12       30.07S
BOISE          CLEAR     59  34  39 W12       30.01S
SPOKANE        CLOUDY    59  40  49 S7        30.08S
$$

REGIONAL REPORTS...ALBERTA

CITY           SKY/WX    TMP DP  RH WIND       PRES   REMARKS
EDMONTON       MOCLDY    50  41  71 SE5       30.02S
CALGARY        PTCLDY    48  32  53 SE9       30.04R
LETHBRIDGE     PTCLDY    46  34  61 NE7       30.06R
MEDICINE HAT   CLOUDY    50  37  62 E8        30.08R
$$

REGIONAL REPORTS...SASKATCHEWAN

CITY           SKY/WX    TMP DP  RH WIND       PRES   REMARKS
SWIFT CURRENT    N/A     46  34  61 S8        30.11R
REGINA         MOCLDY    46  36  66 E5        30.14S
SASKATOON      MOCLDY    50  37  62 S2        30.14S
$$



USA.gov is the U.S. government's official web portal to all federal, state and local government web resources and services.